{"data":{"norad_id":47559,"epoch":"2026-06-22T00:58:06.882816Z","epoch_age_seconds":7841409,"freshness":"OLD","line1":"1 47559U 21009M   26173.04035744  .06012951  12223-4  70628-3 0  9992","line2":"2 47559  53.0163 155.0458 0007303 255.4573 104.5662 16.35794540298177","mean_motion":16.3579454,"eccentricity":0.0007303,"inclination_deg":53.0163,"raan_deg":155.0458,"arg_perigee_deg":255.4573,"mean_anomaly_deg":104.5662,"bstar":0.00070628,"rev_number":29817,"period_min":88.03061538523,"perigee_km":172.22634433859,"apogee_km":181.8007972623,"semimajor_km":6555.1505708004,"source":"CELESTRAK","updated_at":"2026-06-22T09:00:34.683336Z"}}